Weather History for Crockett, TX

Change the Weather History Date:

Sunday, February 10, 2013

  Actual Average (KLFK) Record (KLFK)
Temperature  
Mean Temperature 62 °F 52 °F  
Max Temperature 69 °F 63 °F 86 °F (1957)
Min Temperature 55 °F 41 °F 15 °F (1933)
Degree Days  
Heating Degree Days 3 14  
Month to date heating degree days 144  
Since 1 July heating degree days 1424  
Cooling Degree Days 0 0  
Month to date cooling degree days 0  
Year to date cooling degree days 8  
Growing Degree Days 12 (Base 50)    
Moisture  
Dew Point 52 °F    
Average Humidity 71    
Maximum Humidity 100    
Minimum Humidity 32    
Precipitation  
Precipitation 0.69 in 0.14 in 4.62 in (1994)
Month to date precipitation 1.39  
Year to date precipitation 5.57  
Snow  
Snow 0.00 in - - ()
Month to date snowfall  
Since 1 July snowfall  
Snow Depth -    
Sea Level Pressure  
Sea Level Pressure 29.90 in    
Wind  
Wind Speed 7 mph (SW)    
Max Wind Speed 18 mph    
Max Gust Speed 32 mph    
Visibility 8 miles    
Events Rain , Thunderstorm    
T = Trace of Precipitation, MM = Missing Value Source: NWS Daily Summary

Daily Weather History Graph

Daily Weather History Graph

Search for Another Location

Airport:

Trip Planner

Search our weather history database for the weather conditions in past years. The results will help you decide how hot, cold, wet, or windy it might be!

Date:

Astronomy

Feb. 10, 2013 Rise Set
Actual Time 7:07 AM CST 6:04 PM CST
Civil Twilight 6:42 AM CST 6:29 PM CST
Nautical Twilight 6:13 AM CST 6:58 PM CST
Astronomical Twilight 5:45 AM CST 7:26 PM CST
Moon 7:02 AM CST (2/10) 6:49 PM CST (2/10)
Length of Visible Light 11h 47m
Length of Day
10h 57m
New Moon, 0% of the Moon is Illuminated
Feb 10
New Moon
Feb 17
First Quarter
Feb 25
Full
Mar 4
Last Quarter
Mar 11
New

Hourly Weather History & Observations

Time (CST) Temp. Dew Point Humidity Pressure Visibility Wind Dir Wind Speed Gust Speed Precip Events Conditions
12:15 AM 66.2 °F 62.6 °F 88% 29.87 in 8.0 mi SSE 11.5 mph 19.6 mph N/A   Overcast
12:35 AM 66.2 °F 62.6 °F 88% 29.86 in 8.0 mi SSE 10.4 mph 18.4 mph N/A   Overcast
12:55 AM 66.2 °F 62.6 °F 88% 29.85 in 8.0 mi SSE 13.8 mph 23.0 mph N/A   Overcast
1:15 AM 66.2 °F 62.6 °F 88% 29.85 in 8.0 mi SSE 13.8 mph 20.7 mph N/A   Overcast
1:35 AM 66.2 °F 62.6 °F 88% 29.84 in 8.0 mi SSE 10.4 mph 17.3 mph N/A   Overcast
1:55 AM 66.2 °F 64.4 °F 94% 29.83 in 5.0 mi SSE 12.7 mph 21.9 mph N/A   Overcast
2:15 AM 66.2 °F 64.4 °F 94% 29.82 in 7.0 mi SSE 11.5 mph 23.0 mph N/A   Overcast
2:35 AM 66.2 °F 64.4 °F 94% 29.81 in 6.0 mi SSE 10.4 mph 18.4 mph N/A   Overcast
2:55 AM 66.2 °F 64.4 °F 94% 29.80 in 7.0 mi SSE 13.8 mph 19.6 mph N/A   Overcast
3:15 AM 66.2 °F 64.4 °F 94% 29.80 in 7.0 mi South 9.2 mph - N/A   Overcast
3:35 AM 66.2 °F 64.4 °F 94% 29.78 in 7.0 mi SSE 6.9 mph 17.3 mph N/A   Overcast
3:55 AM 68.0 °F 64.4 °F 88% 29.79 in 7.0 mi South 6.9 mph - N/A   Overcast
4:15 AM 68.0 °F 64.4 °F 88% 29.80 in 7.0 mi South 4.6 mph 18.4 mph N/A Thunderstorm Overcast
4:35 AM 68.0 °F 64.4 °F 88% 29.81 in 7.0 mi Calm Calm - N/A   Light Drizzle
4:55 AM 68.0 °F 66.2 °F 94% 29.81 in 3.0 mi SSW 9.2 mph - 0.02 in Rain , Thunderstorm Light Rain
5:15 AM 68.0 °F 66.2 °F 94% 29.80 in 5.0 mi South 9.2 mph - N/A   Overcast
5:35 AM 68.0 °F 66.2 °F 94% 29.79 in 6.0 mi South 5.8 mph - N/A   Overcast
5:55 AM 69.8 °F 66.2 °F 88% 29.79 in 7.0 mi South 6.9 mph - N/A   Overcast
6:15 AM 69.8 °F 66.2 °F 88% 29.79 in 7.0 mi South 8.1 mph - N/A   Overcast
6:35 AM 69.8 °F 66.2 °F 88% 29.81 in 7.0 mi South 6.9 mph - N/A   Overcast
6:55 AM 69.8 °F 66.2 °F 88% 29.81 in 7.0 mi South 12.7 mph 17.3 mph N/A Thunderstorm Overcast
7:15 AM 64.4 °F 60.8 °F 88% 29.88 in 2.5 mi West 18.4 mph 32.2 mph 0.14 in Rain , Thunderstorm Heavy Thunderstorms and Rain
7:35 AM 60.8 °F 60.8 °F 100% 29.88 in 2.0 mi WSW 6.9 mph - 0.41 in Rain , Thunderstorm Heavy Rain
7:55 AM 60.8 °F 60.8 °F 100% 29.87 in 2.5 mi WNW 8.1 mph - 0.57 in Rain , Thunderstorm Thunderstorms and Rain
8:15 AM 60.8 °F 59.0 °F 94% 29.90 in 2.0 mi West 5.8 mph - 0.06 in Rain , Thunderstorm Heavy Thunderstorms and Rain
8:35 AM 60.8 °F 57.2 °F 88% 29.89 in 6.0 mi NW 4.6 mph - 0.08 in Rain , Thunderstorm Light Rain
8:55 AM 60.8 °F 59.0 °F 94% 29.89 in 6.0 mi Calm Calm - 0.09 in Rain Light Rain
9:15 AM 59.0 °F 57.2 °F 94% 29.91 in 7.0 mi West 8.1 mph - N/A   Light Drizzle
9:35 AM 60.8 °F 57.2 °F 88% 29.90 in 10.0 mi NW 11.5 mph - N/A   Partly Cloudy
9:55 AM 60.8 °F 55.4 °F 82% 29.91 in 10.0 mi NW 10.4 mph - N/A   Mostly Cloudy
10:15 AM 62.6 °F 48.2 °F 59% 29.89 in 10.0 mi NNW 11.5 mph 24.2 mph N/A   Mostly Cloudy
10:35 AM 62.6 °F 46.4 °F 55% 29.92 in 10.0 mi NW 6.9 mph - N/A   Scattered Clouds
10:55 AM 64.4 °F 48.2 °F 56% 29.92 in 10.0 mi NNW 6.9 mph - 0.01 in   Mostly Cloudy
11:15 AM 64.4 °F 48.2 °F 56% 29.94 in 10.0 mi NNW 3.5 mph - N/A   Scattered Clouds
11:35 AM 64.4 °F 48.2 °F 56% 29.93 in 10.0 mi Calm Calm - N/A   Mostly Cloudy
12:15 PM 64.4 °F 42.8 °F 45% 29.92 in 10.0 mi NW 4.6 mph - N/A   Mostly Cloudy
12:35 PM 64.4 °F 41.0 °F 42% 29.92 in 10.0 mi WNW 6.9 mph - N/A   Partly Cloudy
12:55 PM 64.4 °F 37.4 °F 37% 29.90 in 10.0 mi NW 5.8 mph - N/A   Mostly Cloudy
1:15 PM 64.4 °F 35.6 °F 34% 29.91 in 10.0 mi NW 3.5 mph - N/A   Mostly Cloudy
1:35 PM 64.4 °F 37.4 °F 37% 29.92 in 10.0 mi Calm Calm - N/A   Overcast
1:55 PM 64.4 °F 35.6 °F 34% 29.90 in 10.0 mi Calm Calm - N/A   Overcast
2:15 PM 64.4 °F 39.2 °F 40% 29.90 in 10.0 mi Calm Calm - N/A   Mostly Cloudy
2:35 PM 64.4 °F 39.2 °F 40% 29.90 in 10.0 mi Calm Calm - N/A   Mostly Cloudy
2:55 PM 64.4 °F 35.6 °F 34% 29.91 in 10.0 mi Calm Calm - N/A   Mostly Cloudy
3:15 PM 66.2 °F 35.6 °F 32% 29.90 in 10.0 mi Calm Calm - N/A   Scattered Clouds
3:35 PM 64.4 °F 37.4 °F 37% 29.90 in 10.0 mi Calm Calm - N/A   Mostly Cloudy
3:55 PM 64.4 °F 39.2 °F 40% 29.91 in 10.0 mi Calm Calm - N/A   Overcast
4:15 PM 64.4 °F 37.4 °F 37% 29.91 in 10.0 mi Calm Calm - N/A   Overcast
4:35 PM 64.4 °F 39.2 °F 40% 29.91 in 10.0 mi Calm Calm - N/A   Mostly Cloudy
4:55 PM 64.4 °F 44.6 °F 49% 29.92 in 10.0 mi Calm Calm - N/A   Scattered Clouds
5:15 PM 62.6 °F 46.4 °F 55% 29.92 in 10.0 mi Calm Calm - N/A   Partly Cloudy
5:35 PM 60.8 °F 48.2 °F 63% 29.93 in 10.0 mi Calm Calm - N/A   Clear
5:55 PM 60.8 °F 46.4 °F 59% 29.94 in 10.0 mi Calm Calm - N/A   Scattered Clouds
6:15 PM 60.8 °F 51.8 °F 72% 29.95 in 10.0 mi Calm Calm - N/A   Mostly Cloudy
6:35 PM 59.0 °F 48.2 °F 67% 29.96 in 10.0 mi Calm Calm - N/A   Mostly Cloudy
6:55 PM 60.8 °F 46.4 °F 59% 29.95 in 10.0 mi Calm Calm - N/A   Mostly Cloudy
7:15 PM 57.2 °F 48.2 °F 72% 29.97 in 10.0 mi Calm Calm - N/A   Mostly Cloudy
7:35 PM 57.2 °F 48.2 °F 72% 29.98 in 10.0 mi Calm Calm - N/A   Scattered Clouds
7:55 PM 57.2 °F 48.2 °F 72% 29.99 in 10.0 mi Calm Calm - N/A   Scattered Clouds
8:15 PM 55.4 °F 48.2 °F 77% 30.00 in 10.0 mi Calm Calm - N/A   Mostly Cloudy
8:35 PM 57.2 °F 46.4 °F 67% 30.01 in 10.0 mi Calm Calm - N/A   Mostly Cloudy
8:55 PM 57.2 °F 42.8 °F 59% 30.01 in 10.0 mi Calm Calm - N/A   Partly Cloudy
9:15 PM 55.4 °F 48.2 °F 77% 30.01 in 10.0 mi Calm Calm - N/A   Clear
9:35 PM 55.4 °F 48.2 °F 77% 30.00 in 10.0 mi Calm Calm - N/A   Clear
9:55 PM 55.4 °F 48.2 °F 77% 30.01 in 10.0 mi Calm Calm - N/A   Clear
10:15 PM 55.4 °F 48.2 °F 77% 30.01 in 10.0 mi Calm Calm - N/A   Clear
10:35 PM 55.4 °F 46.4 °F 72% 30.01 in 10.0 mi Calm Calm - N/A   Clear
10:55 PM 55.4 °F 46.4 °F 72% 30.02 in 10.0 mi Calm Calm - N/A   Scattered Clouds
11:15 PM 59.0 °F 37.4 °F 45% 30.03 in 10.0 mi Calm Calm - N/A   Overcast
11:35 PM 55.4 °F 46.4 °F 72% 30.03 in 10.0 mi Calm Calm - N/A   Mostly Cloudy
11:55 PM 55.4 °F 44.6 °F 67% 30.04 in 10.0 mi Calm Calm - N/A   Partly Cloudy